QPF
0.00 0.00 0.00 0.00 0.00 0.00 0.00 0.01 0.00 0.00 0.00 0.00 0.00 0.00 0.00 0.00 0.00 0.00 0.00 0.00 0.00 0.00 0.00 0.00 0.00 0.00 0.00 0.01 0.01 0.01 0.02 0.03 0.05 0.07 0.06 0.06 0.07 0.07 0.04 0.04 0.04 0.05 0.05 0.06
0.00 0.00 0.00 0.00 0.00 0.00 0.00 0.01 0.00 0.00 0.00 0.00 0.00 0.00 0.00 0.00 0.00 0.00 0.00 0.00 0.00 0.00 0.00 0.00 0.00 0.00 0.00 0.01 0.01 0.01 0.02 0.03 0.02 0.04 0.05 0.06 0.06 0.05 0.04 0.04 0.05 0.05 0.06 0.07
0.00 0.00 0.00 0.00 0.00 0.00 0.00 0.00 0.00 0.00 0.00 0.00 0.00 0.00 0.00 0.00 0.00 0.00 0.00 0.00 0.00 0.00 0.00 0.00 0.01 0.01 0.00 0.00 0.00 0.01 0.02 0.02 0.02 0.04 0.03 0.03 0.05 0.04 0.04 0.04 0.05 0.05 0.04 0.05
0.00 0.00 0.00 0.00 0.00 0.00 0.00 0.00 0.00 0.00 0.00 0.00 0.00 0.00 0.01 0.02 0.03 0.01 0.00 0.00 0.00 0.00 0.00 0.00 0.00 0.00 0.00 0.00 0.00 0.01 0.01 0.02 0.03 0.04 0.03 0.04 0.04 0.05 0.06 0.06 0.04 0.04 0.03 0.02
0.00 0.00 0.00 0.00 0.00 0.00 0.00 0.00 0.00 0.00 0.00 0.00 0.00 0.00 0.01 0.03 0.04 0.01 0.00 0.00 0.00 0.00 0.00 0.00 0.00 0.01 0.02 0.01 0.01 0.01 0.01 0.02 0.03 0.04 0.05 0.05 0.05 0.06 0.06 0.06 0.07 0.06 0.04 0.03
0.00 0.00 0.00 0.00 0.00 0.00 0.00 0.00 0.00 0.00 0.00 0.00 0.00 0.00 0.01 0.01 0.02 0.02 0.02 0.02 0.00 0.00 0.00 0.00 0.00 0.01 0.01 0.01 0.01 0.02 0.01 0.01 0.02 0.02 0.03 0.04 0.06 0.07 0.06 0.07 0.07 0.06 0.04 0.03
0.00 0.00 0.00 0.00 0.00 0.00 0.00 0.00 0.00 0.00 0.00 0.00 0.00 0.00 0.00 0.01 0.02 0.02 0.02 0.03 0.01 0.00 0.00 0.00 0.00 0.01 0.01 0.02 0.01 0.01 0.01 0.02 0.01 0.02 0.02 0.03 0.04 0.05 0.05 0.05 0.05 0.05 0.03 0.03
0.00 0.00 0.00 0.00 0.00 0.00 0.00 0.00 0.00 0.00 0.01 0.01 0.02 0.01 0.00 0.00 0.00 0.00 0.00 0.01 0.01 0.00 0.00 0.00 0.00 0.00 0.01 0.01 0.01 0.00 0.01 0.01 0.02 0.03 0.03 0.03 0.04 0.05 0.04 0.05 0.05 0.05 0.03 0.03
0.00 0.00 0.00 0.00 0.00 0.00 0.00 0.00 0.00 0.00 0.00 0.01 0.01 0.01 0.00 0.00 0.00 0.00 0.00 0.00 0.00 0.00 0.00 0.00 0.00 0.00 0.00 0.00 0.00 0.01 0.01 0.01 0.02 0.03 0.04 0.04 0.03 0.03 0.04 0.05 0.05 0.04 0.04 0.03
0.00 0.00 0.00 0.00 0.00 0.00 0.00 0.00 0.00 0.00 0.00 0.00 0.01 0.02 0.01 0.00 0.00 0.00 0.00 0.00 0.00 0.00 0.00 0.00 0.00 0.00 0.00 0.00 0.00 0.01 0.02 0.02 0.02 0.03 0.03 0.02 0.02 0.02 0.04 0.04 0.05 0.05 0.05 0.04
0.00 0.00 0.00 0.00 0.00 0.00 0.00 0.00 0.00 0.00 0.00 0.00 0.01 0.01 0.01 0.01 0.01 0.00 0.00 0.00 0.00 0.00 0.00 0.00 0.00 0.00 0.00 0.00 0.01 0.00 0.01 0.02 0.03 0.03 0.03 0.03 0.03 0.02 0.03 0.04 0.04 0.04 0.05 0.05
0.00 0.00 0.00 0.00 0.00 0.00 0.00 0.00 0.00 0.00 0.00 0.00 0.00 0.00 0.00 0.00 0.00 0.00 0.00 0.02 0.03 0.02 0.01 0.01 0.01 0.01 0.00 0.00 0.01 0.01 0.01 0.02 0.02 0.03 0.03 0.03 0.03 0.02 0.03 0.03 0.03 0.03 0.04 0.04
0.00 0.00 0.00 0.00 0.00 0.00 0.00 0.00 0.00 0.00 0.00 0.00 0.00 0.00 0.01 0.01 0.00 0.00 0.00 0.02 0.05 0.02 0.00 0.01 0.04 0.03 0.01 0.01 0.01 0.00 0.01 0.02 0.02 0.03 0.02 0.02 0.02 0.02 0.02 0.02 0.02 0.03 0.04 0.04
0.00 0.00 0.00 0.00 0.00 0.00 0.00 0.00 0.00 0.00 0.00 0.00 0.00 0.00 0.02 0.01 0.00 0.00 0.00 0.00 0.02 0.01 0.01 0.01 0.02 0.01 0.01 0.01 0.00 0.01 0.02 0.03 0.03 0.02 0.01 0.01 0.02 0.02 0.02 0.02 0.03 0.03 0.04 0.04
0.00 0.00 0.00 0.00 0.00 0.00 0.00 0.00 0.00 0.00 0.00 0.00 0.00 0.01 0.01 0.00 0.00 0.00 0.00 0.00 0.00 0.01 0.01 0.01 0.01 0.01 0.01 0.01 0.01 0.02 0.02 0.02 0.02 0.02 0.01 0.02 0.02 0.02 0.03 0.03 0.03 0.03 0.03 0.03
0.00 0.00 0.00 0.00 0.00 0.00 0.00 0.00 0.00 0.00 0.00 0.00 0.00 0.00 0.00 0.00 0.00 0.00 0.00 0.00 0.01 0.01 0.01 0.01 0.01 0.01 0.01 0.02 0.02 0.01 0.01 0.01 0.00 0.01 0.01 0.02 0.03 0.04 0.04 0.04 0.03 0.03 0.02 0.02
0.00 0.00 0.00 0.00 0.00 0.00 0.00 0.00 0.00 0.00 0.00 0.00 0.00 0.00 0.00 0.00 0.00 0.01 0.00 0.00 0.01 0.01 0.01 0.01 0.02 0.02 0.03 0.05 0.07 0.04 0.02 0.01 0.01 0.01 0.02 0.05 0.06 0.08 0.08 0.08 0.06 0.05 0.04 0.03
0.00 0.00 0.00 0.00 0.00 0.00 0.00 0.00 0.00 0.00 0.00 0.00 0.00 0.00 0.00 0.00 0.00 0.00 0.00 0.00 0.01 0.01 0.01 0.02 0.01 0.01 0.03 0.06 0.08 0.07 0.04 0.02 0.01 0.01 0.02 0.03 0.05 0.07 0.08 0.09 0.08 0.06 0.05 0.04
0.00 0.00 0.00 0.00 0.00 0.00 0.00 0.00 0.00 0.00 0.00 0.00 0.00 0.00 0.00 0.00 0.00 0.01 0.01 0.00 0.01 0.01 0.01 0.01 0.01 0.01 0.03 0.07 0.12 0.11 0.04 0.02 0.01 0.02 0.03 0.04 0.05 0.05 0.05 0.06 0.07 0.06 0.05 0.04
0.00 0.00 0.00 0.00 0.00 0.00 0.00 0.00 0.00 0.00 0.00 0.00 0.00 0.00 0.00 0.00 0.01 0.03 0.03 0.01 0.00 0.01 0.01 0.01 0.01 0.01 0.02 0.03 0.04 0.06 0.05 0.04 0.03 0.03 0.03 0.03 0.04 0.05 0.05 0.05 0.05 0.05 0.05 0.05
0.00 0.00 0.00 0.00 0.00 0.00 0.00 0.00 0.00 0.00 0.01 0.00 0.00 0.00 0.01 0.01 0.02 0.02 0.01 0.01 0.01 0.02 0.02 0.02 0.02 0.02 0.02 0.03 0.03 0.04 0.04 0.04 0.03 0.03 0.03 0.03 0.04 0.04 0.04 0.03 0.04 0.05 0.05 0.06
0.00 0.00 0.00 0.00 0.01 0.01 0.00 0.00 0.00 0.01 0.00 0.00 0.00 0.00 0.02 0.04 0.02 0.01 0.01 0.01 0.01 0.01 0.02 0.02 0.03 0.03 0.03 0.03 0.03 0.04 0.04 0.05 0.05 0.04 0.03 0.03 0.03 0.03 0.02 0.02 0.03 0.05 0.07 0.07
0.01 0.00 0.00 0.00 0.01 0.01 0.00 0.00 0.00 0.00 0.00 0.00 0.00 0.00 0.01 0.01 0.01 0.01 0.01 0.01 0.01 0.01 0.02 0.03 0.02 0.03 0.03 0.04 0.05 0.05 0.06 0.07 0.07 0.07 0.06 0.05 0.04 0.03 0.03 0.03 0.04 0.04 0.05 0.05
0.02 0.01 0.01 0.01 0.01 0.00 0.01 0.00 0.00 0.00 0.00 0.00 0.00 0.01 0.01 0.01 0.01 0.02 0.02 0.01 0.01 0.01 0.02 0.02 0.02 0.03 0.03 0.04 0.06 0.07 0.07 0.08 0.08 0.09 0.07 0.06 0.05 0.04 0.04 0.05 0.07 0.09 0.10 0.09
0.02 0.02 0.01 0.01 0.02 0.01 0.01 0.01 0.00 0.00 0.00 0.00 0.00 0.01 0.01 0.02 0.02 0.02 0.03 0.02 0.02 0.02 0.02 0.03 0.03 0.03 0.03 0.04 0.04 0.05 0.06 0.07 0.07 0.07 0.07 0.06 0.05 0.05 0.05 0.08 0.11 0.10 0.07 0.05
0.01 0.02 0.01 0.03 0.05 0.04 0.02 0.01 0.00 0.00 0.00 0.01 0.01 0.01 0.01 0.02 0.02 0.02 0.02 0.02 0.02 0.02 0.02 0.02 0.02 0.02 0.03 0.05 0.05 0.05 0.06 0.06 0.08 0.09 0.09 0.10 0.10 0.11 0.10 0.10 0.08 0.05 0.04 0.04
MSLP
1005.56 1006.24 1006.67 1006.85 1006.82 1006.65 1006.46 1006.32 1006.31 1006.45 1006.72 1007.09 1007.49 1007.88 1008.22 1008.49 1008.70 1008.89 1009.08 1009.32 1009.61 1009.96 1010.37 1010.80 1011.25 1011.67 1012.07 1012.43 1012.75 1013.05 1013.33 1013.59 1013.84 1014.06 1014.25 1014.41 1014.52 1014.61 1014.66 1014.70 1014.74 1014.80 1014.88 1014.99
1006.14 1006.63 1006.87 1006.89 1006.77 1006.58 1006.42 1006.38 1006.48 1006.73 1007.08 1007.47 1007.84 1008.13 1008.33 1008.43 1008.48 1008.53 1008.64 1008.84 1009.15 1009.56 1010.05 1010.58 1011.09 1011.56 1011.97 1012.31 1012.60 1012.86 1013.12 1013.38 1013.65 1013.91 1014.16 1014.36 1014.51 1014.60 1014.63 1014.62 1014.59 1014.58 1014.60 1014.67
1006.51 1006.77 1006.82 1006.71 1006.51 1006.35 1006.29 1006.41 1006.69 1007.10 1007.57 1008.00 1008.33 1008.50 1008.52 1008.41 1008.25 1008.12 1008.10 1008.24 1008.55 1009.03 1009.62 1010.25 1010.87 1011.41 1011.86 1012.21 1012.49 1012.73 1012.96 1013.21 1013.50 1013.80 1014.09 1014.34 1014.53 1014.62 1014.64 1014.59 1014.50 1014.42 1014.38 1014.40
1006.61 1006.67 1006.55 1006.33 1006.13 1006.05 1006.16 1006.49 1007.00 1007.61 1008.22 1008.70 1008.98 1009.02 1008.82 1008.46 1008.04 1007.68 1007.49 1007.53 1007.83 1008.35 1009.04 1009.80 1010.54 1011.19 1011.71 1012.11 1012.40 1012.63 1012.85 1013.09 1013.38 1013.70 1014.03 1014.32 1014.53 1014.65 1014.66 1014.58 1014.45 1014.31 1014.20 1014.16
1006.49 1006.37 1006.12 1005.86 1005.70 1005.76 1006.07 1006.65 1007.42 1008.25 1008.99 1009.53 1009.75 1009.63 1009.21 1008.56 1007.85 1007.24 1006.84 1006.75 1007.00 1007.55 1008.33 1009.21 1010.09 1010.86 1011.49 1011.95 1012.27 1012.51 1012.73 1012.96 1013.25 1013.57 1013.92 1014.23 1014.48 1014.62 1014.63 1014.55 1014.38 1014.19 1014.03 1013.92
1006.20 1005.96 1005.64 1005.38 1005.31 1005.53 1006.07 1006.90 1007.91 1008.94 1009.82 1010.39 1010.55 1010.27 1009.61 1008.68 1007.68 1006.79 1006.17 1005.93 1006.10 1006.66 1007.49 1008.49 1009.49 1010.39 1011.13 1011.67 1012.04 1012.30 1012.52 1012.74 1013.02 1013.34 1013.70 1014.03 1014.30 1014.47 1014.50 1014.41 1014.24 1014.01 1013.80 1013.63
1005.83 1005.52 1005.19 1004.98 1005.02 1005.40 1006.14 1007.19 1008.40 1009.59 1010.56 1011.14 1011.24 1010.81 1009.94 1008.77 1007.51 1006.37 1005.54 1005.14 1005.22 1005.74 1006.61 1007.67 1008.77 1009.77 1010.60 1011.22 1011.65 1011.93 1012.15 1012.37 1012.64 1012.96 1013.32 1013.67 1013.97 1014.15 1014.21 1014.14 1013.97 1013.73 1013.48 1013.27
1005.49 1005.17 1004.86 1004.72 1004.86 1005.37 1006.26 1007.45 1008.78 1010.06 1011.08 1011.66 1011.69 1011.16 1010.14 1008.78 1007.32 1005.99 1004.99 1004.45 1004.42 1004.89 1005.74 1006.82 1007.97 1009.03 1009.93 1010.60 1011.07 1011.38 1011.60 1011.83 1012.09 1012.41 1012.77 1013.14 1013.46 1013.68 1013.78 1013.74 1013.58 1013.34 1013.08 1012.84
1005.23 1004.94 1004.69 1004.62 1004.84 1005.42 1006.37 1007.61 1008.97 1010.27 1011.28 1011.84 1011.83 1011.24 1010.14 1008.69 1007.14 1005.70 1004.59 1003.94 1003.83 1004.21 1005.00 1006.04 1007.17 1008.24 1009.14 1009.84 1010.32 1010.65 1010.89 1011.12 1011.38 1011.71 1012.09 1012.49 1012.84 1013.10 1013.24 1013.24 1013.11 1012.89 1012.63 1012.37
1005.09 1004.88 1004.70 1004.67 1004.92 1005.50 1006.42 1007.60 1008.91 1010.14 1011.10 1011.62 1011.60 1011.01 1009.94 1008.52 1006.98 1005.55 1004.41 1003.71 1003.51 1003.80 1004.49 1005.44 1006.48 1007.48 1008.34 1009.01 1009.49 1009.82 1010.08 1010.32 1010.61 1010.96 1011.37 1011.80 1012.19 1012.50 1012.68 1012.73 1012.63 1012.44 1012.19 1011.94
1005.08 1004.97 1004.85 1004.85 1005.07 1005.58 1006.38 1007.41 1008.57 1009.67 1010.53 1011.02 1011.03 1010.53 1009.58 1008.30 1006.91 1005.58 1004.50 1003.81 1003.56 1003.75 1004.30 1005.10 1005.99 1006.87 1007.63 1008.23 1008.68 1009.00 1009.27 1009.55 1009.87 1010.26 1010.71 1011.18 1011.62 1011.98 1012.21 1012.30 1012.25 1012.09 1011.86 1011.61
1005.18 1005.16 1005.11 1005.11 1005.26 1005.64 1006.25 1007.07 1008.01 1008.94 1009.69 1010.15 1010.22 1009.87 1009.13 1008.10 1006.94 1005.82 1004.88 1004.25 1003.98 1004.07 1004.47 1005.08 1005.78 1006.48 1007.10 1007.60 1007.99 1008.31 1008.59 1008.90 1009.28 1009.72 1010.22 1010.74 1011.23 1011.63 1011.90 1012.03 1012.01 1011.88 1011.67 1011.45
1005.35 1005.43 1005.43 1005.41 1005.48 1005.68 1006.07 1006.65 1007.35 1008.07 1008.71 1009.15 1009.31 1009.15 1008.68 1007.96 1007.11 1006.25 1005.52 1004.99 1004.72 1004.73 1004.97 1005.37 1005.86 1006.36 1006.82 1007.21 1007.53 1007.83 1008.13 1008.48 1008.91 1009.41 1009.96 1010.52 1011.05 1011.48 1011.78 1011.93 1011.94 1011.83 1011.65 1011.43
1005.58 1005.76 1005.79 1005.76 1005.72 1005.76 1005.92 1006.25 1006.70 1007.23 1007.76 1008.19 1008.45 1008.50 1008.31 1007.93 1007.41 1006.86 1006.35 1005.95 1005.71 1005.64 1005.74 1005.95 1006.23 1006.53 1006.82 1007.09 1007.35 1007.63 1007.94 1008.33 1008.80 1009.34 1009.93 1010.53 1011.07 1011.51 1011.83 1011.99 1012.00 1011.90 1011.73 1011.53
1005.86 1006.12 1006.20 1006.14 1006.02 1005.91 1005.88 1005.98 1006.22 1006.57 1006.99 1007.41 1007.77 1008.01 1008.09 1008.02 1007.83 1007.57 1007.28 1007.02 1006.82 1006.71 1006.69 1006.73 1006.83 1006.96 1007.11 1007.27 1007.47 1007.72 1008.04 1008.45 1008.95 1009.51 1010.11 1010.70 1011.24 1011.67 1011.96 1012.11 1012.12 1012.02 1011.85 1011.65
1006.21 1006.53 1006.65 1006.59 1006.42 1006.21 1006.03 1005.95 1006.01 1006.21 1006.54 1006.94 1007.36 1007.75 1008.05 1008.25 1008.33 1008.31 1008.22 1008.09 1007.95 1007.82 1007.71 1007.64 1007.60 1007.59 1007.62 1007.71 1007.86 1008.08 1008.40 1008.81 1009.30 1009.85 1010.42 1010.98 1011.47 1011.85 1012.10 1012.22 1012.21 1012.09 1011.92 1011.73
1006.62 1007.00 1007.16 1007.12 1006.94 1006.67 1006.40 1006.20 1006.13 1006.22 1006.46 1006.83 1007.28 1007.75 1008.20 1008.58 1008.86 1009.03 1009.09 1009.07 1008.98 1008.85 1008.71 1008.57 1008.44 1008.36 1008.32 1008.35 1008.47 1008.67 1008.96 1009.34 1009.79 1010.29 1010.79 1011.27 1011.68 1011.99 1012.17 1012.24 1012.20 1012.07 1011.89 1011.70
1007.09 1007.51 1007.72 1007.73 1007.57 1007.31 1007.01 1006.75 1006.61 1006.61 1006.77 1007.08 1007.51 1008.01 1008.52 1008.99 1009.38 1009.66 1009.83 1009.89 1009.86 1009.75 1009.61 1009.45 1009.30 1009.19 1009.13 1009.14 1009.23 1009.40 1009.66 1009.98 1010.36 1010.76 1011.16 1011.52 1011.82 1012.03 1012.14 1012.15 1012.07 1011.93 1011.75 1011.58
1007.59 1008.04 1008.30 1008.38 1008.28 1008.07 1007.80 1007.54 1007.36 1007.30 1007.40 1007.64 1008.01 1008.46 1008.95 1009.43 1009.85 1010.18 1010.41 1010.52 1010.54 1010.48 1010.37 1010.25 1010.12 1010.03 1009.98 1010.00 1010.07 1010.21 1010.41 1010.66 1010.93 1011.21 1011.47 1011.70 1011.88 1011.98 1012.01 1011.97 1011.87 1011.73 1011.57 1011.42
1008.08 1008.54 1008.86 1009.01 1009.01 1008.87 1008.67 1008.45 1008.27 1008.19 1008.22 1008.39 1008.67 1009.04 1009.46 1009.88 1010.27 1010.59 1010.83 1010.97 1011.04 1011.04 1011.00 1010.93 1010.87 1010.83 1010.82 1010.85 1010.92 1011.03 1011.17 1011.32 1011.48 1011.62 1011.75 1011.84 1011.89 1011.90 1011.86 1011.79 1011.68 1011.56 1011.44 1011.33
1008.50 1008.98 1009.35 1009.57 1009.66 1009.63 1009.52 1009.36 1009.22 1009.13 1009.12 1009.21 1009.39 1009.66 1009.97 1010.30 1010.62 1010.90 1011.12 1011.29 1011.39 1011.45 1011.48 1011.49 1011.51 1011.53 1011.58 1011.64 1011.71 1011.79 1011.86 1011.93 1011.97 1011.99 1011.99 1011.96 1011.92 1011.85 1011.77 1011.69 1011.60 1011.52 1011.45 1011.40
1008.83 1009.31 1009.71 1010.01 1010.19 1010.26 1010.24 1010.17 1010.07 1010.00 1009.96 1009.99 1010.09 1010.25 1010.45 1010.68 1010.92 1011.14 1011.34 1011.50 1011.64 1011.75 1011.85 1011.94 1012.03 1012.12 1012.22 1012.30 1012.38 1012.43 1012.45 1012.44 1012.39 1012.31 1012.21 1012.10 1011.99 1011.89 1011.80 1011.73 1011.69 1011.67 1011.67 1011.69
1009.05 1009.53 1009.95 1010.29 1010.55 1010.71 1010.78 1010.79 1010.75 1010.71 1010.67 1010.66 1010.70 1010.77 1010.88 1011.02 1011.18 1011.34 1011.50 1011.66 1011.81 1011.96 1012.11 1012.27 1012.42 1012.56 1012.69 1012.80 1012.88 1012.90 1012.89 1012.82 1012.71 1012.57 1012.42 1012.26 1012.13 1012.03 1011.96 1011.94 1011.97 1012.02 1012.10 1012.20
1009.21 1009.65 1010.07 1010.44 1010.74 1010.97 1011.12 1011.20 1011.23 1011.22 1011.20 1011.18 1011.18 1011.20 1011.25 1011.33 1011.42 1011.54 1011.66 1011.81 1011.96 1012.13 1012.30 1012.49 1012.67 1012.84 1012.99 1013.10 1013.17 1013.18 1013.14 1013.05 1012.92 1012.76 1012.59 1012.44 1012.32 1012.25 1012.24 1012.28 1012.38 1012.51 1012.67 1012.84
1009.34 1009.74 1010.13 1010.50 1010.82 1011.09 1011.29 1011.43 1011.51 1011.55 1011.56 1011.56 1011.55 1011.56 1011.57 1011.61 1011.67 1011.75 1011.85 1011.97 1012.11 1012.26 1012.43 1012.61 1012.79 1012.95 1013.09 1013.19 1013.25 1013.25 1013.21 1013.11 1012.98 1012.84 1012.69 1012.58 1012.50 1012.49 1012.54 1012.66 1012.83 1013.04 1013.26 1013.49
1009.52 1009.86 1010.21 1010.55 1010.86 1011.14 1011.37 1011.54 1011.67 1011.76 1011.81 1011.83 1011.85 1011.86 1011.88 1011.91 1011.95 1012.00 1012.07 1012.16 1012.27 1012.39 1012.52 1012.65 1012.79 1012.91 1013.02 1013.09 1013.13 1013.13 1013.08 1013.00 1012.90 1012.79 1012.69 1012.63 1012.62 1012.67 1012.79 1012.97 1013.20 1013.46 1013.74 1014.00
Thickness
5869 5857 5850 5862 5874 5870 5865 5857 5852 5864 5887 5880 5868 5860 5862 5871 5866 5859 5853 5848 5843 5840 5842 5840 5835 5831 5823 5816 5810 5804 5799 5796 5791 5786 5782 5779 5776 5777 5776 5774 5771 5769 5767 5765
5852 5848 5865 5877 5878 5874 5867 5856 5857 5868 5885 5878 5867 5862 5869 5871 5869 5866 5859 5852 5848 5844 5842 5839 5836 5832 5826 5818 5812 5807 5802 5798 5794 5790 5786 5783 5781 5779 5778 5776 5773 5770 5768 5766
5840 5859 5874 5869 5865 5863 5863 5859 5858 5860 5874 5881 5868 5852 5857 5864 5872 5871 5868 5863 5856 5849 5843 5838 5835 5833 5829 5822 5816 5812 5806 5801 5797 5794 5790 5787 5783 5780 5777 5774 5772 5771 5769 5767
5851 5867 5868 5861 5860 5863 5852 5875 5871 5865 5857 5854 5859 5826 5841 5849 5847 5860 5864 5864 5859 5856 5850 5843 5838 5834 5831 5827 5823 5817 5811 5805 5800 5796 5791 5786 5780 5775 5775 5775 5773 5772 5770 5768
5846 5859 5856 5851 5861 5868 5865 5880 5874 5867 5857 5847 5852 5831 5827 5845 5832 5845 5856 5862 5863 5861 5856 5848 5843 5839 5837 5833 5827 5820 5813 5807 5802 5798 5793 5787 5783 5780 5778 5777 5774 5771 5770 5768
5853 5870 5867 5863 5872 5874 5875 5868 5863 5861 5851 5824 5839 5831 5819 5837 5837 5843 5852 5858 5864 5864 5859 5853 5849 5844 5839 5836 5829 5821 5813 5807 5803 5799 5794 5789 5784 5781 5777 5774 5771 5770 5769 5768
5833 5851 5865 5870 5855 5862 5861 5840 5820 5814 5812 5811 5839 5835 5832 5851 5859 5856 5855 5856 5864 5863 5859 5853 5847 5842 5837 5833 5828 5822 5814 5807 5804 5800 5795 5791 5786 5782 5777 5775 5773 5771 5769 5767
5815 5821 5850 5859 5850 5844 5849 5842 5814 5797 5797 5807 5820 5818 5839 5863 5870 5873 5870 5866 5864 5860 5859 5853 5849 5843 5838 5834 5829 5822 5815 5809 5805 5800 5796 5793 5789 5784 5781 5778 5775 5773 5771 5769
5822 5825 5859 5864 5864 5853 5838 5840 5853 5832 5818 5801 5806 5820 5842 5862 5862 5866 5865 5863 5860 5857 5857 5853 5848 5844 5839 5833 5828 5823 5816 5810 5806 5802 5797 5793 5789 5786 5782 5780 5777 5774 5772 5770
5831 5819 5844 5859 5858 5856 5852 5849 5840 5825 5800 5789 5798 5807 5817 5831 5845 5854 5856 5855 5856 5857 5856 5852 5848 5844 5839 5835 5829 5824 5817 5810 5806 5802 5798 5794 5790 5786 5783 5780 5776 5774 5772 5770
5830 5813 5824 5840 5832 5830 5836 5834 5832 5828 5823 5801 5789 5796 5833 5840 5847 5847 5848 5851 5851 5852 5850 5848 5846 5842 5839 5834 5828 5822 5816 5810 5805 5801 5798 5794 5790 5787 5783 5779 5777 5774 5771 5768
5824 5814 5807 5825 5847 5853 5844 5836 5830 5809 5808 5815 5806 5804 5849 5850 5852 5848 5844 5843 5840 5843 5844 5843 5840 5837 5834 5831 5826 5820 5815 5809 5805 5802 5798 5793 5789 5786 5782 5779 5777 5774 5771 5768
5811 5799 5784 5796 5818 5834 5831 5836 5837 5832 5821 5811 5803 5806 5844 5843 5843 5843 5840 5837 5834 5833 5835 5834 5830 5827 5827 5825 5822 5818 5814 5809 5805 5801 5796 5791 5788 5784 5781 5778 5776 5774 5770 5767
5802 5791 5785 5782 5799 5817 5815 5823 5830 5824 5811 5807 5811 5809 5824 5827 5828 5830 5831 5829 5827 5824 5827 5826 5822 5821 5821 5820 5817 5814 5811 5808 5804 5799 5794 5789 5787 5784 5781 5778 5775 5771 5768 5764
5794 5779 5788 5800 5814 5817 5815 5817 5821 5817 5816 5809 5813 5812 5815 5820 5823 5823 5824 5823 5819 5816 5818 5818 5816 5815 5815 5813 5811 5809 5806 5804 5802 5796 5791 5787 5785 5782 5779 5775 5771 5768 5765 5761
5783 5772 5779 5784 5804 5809 5806 5815 5817 5816 5819 5817 5815 5808 5822 5823 5820 5817 5816 5813 5808 5807 5809 5809 5809 5807 5806 5805 5804 5803 5800 5798 5796 5791 5787 5785 5781 5777 5774 5771 5768 5763 5760 5757
5771 5763 5759 5766 5790 5794 5784 5804 5810 5811 5815 5811 5801 5804 5813 5808 5805 5804 5807 5806 5802 5801 5802 5801 5801 5801 5799 5797 5797 5794 5795 5793 5789 5785 5782 5780 5776 5771 5769 5767 5763 5759 5755 5752
5756 5754 5756 5760 5764 5749 5785 5815 5816 5808 5807 5811 5807 5806 5805 5801 5801 5802 5803 5799 5795 5793 5794 5795 5795 5795 5795 5794 5791 5788 5788 5785 5782 5778 5776 5774 5770 5766 5763 5760 5756 5754 5751 5747
5760 5749 5746 5750 5749 5759 5782 5795 5801 5793 5789 5802 5798 5797 5798 5797 5792 5788 5792 5792 5789 5789 5789 5789 5791 5791 5789 5787 5785 5781 5779 5777 5775 5772 5770 5769 5766 5761 5758 5754 5751 5748 5745 5742
5755 5749 5739 5741 5735 5738 5759 5785 5798 5787 5768 5787 5788 5783 5781 5780 5765 5765 5777 5780 5781 5782 5782 5782 5784 5784 5781 5780 5778 5774 5771 5769 5767 5766 5765 5763 5761 5757 5753 5749 5746 5743 5740 5736
5732 5731 5729 5730 5730 5743 5759 5776 5781 5750 5744 5771 5775 5771 5769 5762 5759 5763 5769 5771 5771 5771 5773 5774 5774 5772 5772 5772 5770 5766 5764 5762 5762 5762 5760 5758 5755 5751 5748 5744 5740 5737 5733 5729
5723 5725 5724 5725 5720 5721 5749 5756 5744 5740 5755 5760 5761 5760 5756 5755 5755 5755 5756 5758 5759 5760 5760 5762 5761 5761 5763 5763 5761 5757 5755 5757 5756 5754 5752 5750 5748 5744 5741 5737 5733 5730 5727 5722
5721 5720 5720 5718 5715 5727 5739 5738 5741 5747 5744 5747 5749 5748 5747 5743 5742 5743 5743 5744 5746 5747 5748 5749 5749 5749 5752 5753 5752 5748 5748 5749 5747 5745 5743 5741 5740 5736 5733 5729 5725 5722 5719 5717
5712 5719 5713 5708 5715 5722 5727 5730 5731 5734 5734 5737 5738 5736 5735 5731 5731 5730 5730 5731 5732 5734 5735 5737 5737 5736 5737 5740 5741 5741 5741 5741 5738 5735 5733 5731 5729 5725 5723 5721 5718 5715 5712 5710
5695 5698 5698 5696 5701 5707 5710 5714 5718 5721 5723 5724 5724 5723 5721 5720 5718 5718 5717 5718 5719 5721 5722 5723 5723 5723 5725 5728 5729 5731 5731 5730 5727 5725 5723 5721 5719 5716 5713 5709 5706 5705 5702 5701
5690 5687 5683 5681 5689 5690 5692 5702 5706 5707 5708 5710 5709 5709 5710 5709 5707 5707 5706 5707 5707 5708 5710 5710 5711 5711 5713 5715 5717 5719 5719 5719 5716 5713 5712 5711 5709 5706 5703 5698 5692 5690 5690 5688